ANA1632 RJOM-RJOO

Flight info

Callsign ANA1632
Flight time 0h 36m
Altitude 25000
Route SAKAR ROSIE Y231 MIRIO Y401 KAINA Y753 IZUMI
Aircraft B738/M-SDE2E3FGHIRWXY/LB1

Departure

Time 2026-04-14 22:33
Airport Matsuyama Airport (RJOM)

Arrival

Time 2026-04-14 23:09
Airport Osaka Itami International Airport (RJOO)
Time Latitude Longitude Altitude Speed Heading
2026-04-14 22:19 33.82837 132.70368 26 ft 0 kts 40°
2026-04-14 22:26 33.82836 132.70368 24 ft 1 kts 40°
2026-04-14 22:26 33.82824 132.70355 29 ft 2 kts 41°
2026-04-14 22:26 33.82811 132.70342 28 ft 2 kts 41°
2026-04-14 22:27 33.82799 132.70329 28 ft 2 kts 41°
2026-04-14 22:27 33.82787 132.70316 28 ft 2 kts 41°
2026-04-14 22:27 33.82774 132.70303 27 ft 2 kts 42°
2026-04-14 22:27 33.82762 132.70289 27 ft 2 kts 42°
2026-04-14 22:28 33.82750 132.70276 27 ft 2 kts 49°
2026-04-14 22:28 33.82742 132.70259 28 ft 2 kts 86°
2026-04-14 22:28 33.82744 132.70242 30 ft 1 kts 122°
2026-04-14 22:28 33.82746 132.70239 30 ft 0 kts 126°
2026-04-14 22:29 33.82743 132.70243 30 ft 2 kts 129°
2026-04-14 22:30 33.82723 132.70271 28 ft 6 kts 130°
2026-04-14 22:30 33.82686 132.70323 24 ft 10 kts 130°
2026-04-14 22:30 33.82635 132.70394 27 ft 13 kts 131°
2026-04-14 22:30 33.82572 132.70482 30 ft 15 kts 130°
2026-04-14 22:31 33.82498 132.70585 26 ft 17 kts 130°
2026-04-14 22:31 33.82417 132.70699 26 ft 19 kts 130°
2026-04-14 22:31 33.82328 132.70824 26 ft 20 kts 130°
2026-04-14 22:31 33.82233 132.70957 28 ft 21 kts 130°
2026-04-14 22:32 33.82125 132.71015 25 ft 17 kts 184°
2026-04-14 22:32 33.82048 132.70957 24 ft 13 kts 251°
2026-04-14 22:32 33.82077 132.70869 25 ft 10 kts 310°
2026-04-14 22:32 33.82175 132.70732 24 ft 50 kts 311°
2026-04-14 22:33 33.82559 132.70195 23 ft 117 kts 310°
2026-04-14 22:33 33.83214 132.69278 70 ft 166 kts 312°
2026-04-14 22:33 33.83965 132.68218 826 ft 162 kts 308°
2026-04-14 22:33 33.84257 132.66913 1404 ft 173 kts 255°
2026-04-14 22:34 33.83587 132.65728 1996 ft 184 kts 213°
2026-04-14 22:34 33.82290 132.65272 2274 ft 210 kts 175°
2026-04-14 22:34 33.80787 132.65637 2549 ft 229 kts 165°
2026-04-14 22:34 33.79211 132.66115 3122 ft 235 kts 165°
2026-04-14 22:35 33.77635 132.66586 3815 ft 236 kts 165°
2026-04-14 22:35 33.75970 132.67072 4332 ft 253 kts 166°
2026-04-14 22:35 33.74243 132.67563 5094 ft 257 kts 167°
2026-04-14 22:35 33.72475 132.68058 5818 ft 263 kts 167°
2026-04-14 22:36 33.70689 132.68553 6562 ft 268 kts 168°
2026-04-14 22:36 33.68855 132.69060 7246 ft 273 kts 168°
2026-04-14 22:36 33.67033 132.69757 7923 ft 281 kts 152°
2026-04-14 22:36 33.65426 132.71155 8647 ft 287 kts 144°
2026-04-14 22:37 33.63836 132.72652 9361 ft 293 kts 144°
2026-04-14 22:37 33.62208 132.74168 10031 ft 299 kts 144°
2026-04-14 22:37 33.60544 132.75704 10435 ft 316 kts 144°
2026-04-14 22:37 33.58908 132.77610 10632 ft 344 kts 125°
2026-04-14 22:38 33.58011 132.80340 11138 ft 360 kts 98°
2026-04-14 22:38 33.58189 132.83326 11934 ft 365 kts 77°
2026-04-14 22:38 33.58784 132.86310 12765 ft 370 kts 75°
2026-04-14 22:38 33.59427 132.89326 13515 ft 375 kts 75°
2026-04-14 22:39 33.60076 132.92358 14135 ft 381 kts 75°
2026-04-14 22:39 33.60732 132.95486 14754 ft 386 kts 75°
2026-04-14 22:39 33.61380 132.98640 15346 ft 392 kts 75°
2026-04-14 22:39 33.62027 133.01843 15968 ft 398 kts 76°
2026-04-14 22:40 33.62672 133.05067 16550 ft 404 kts 76°
2026-04-14 22:40 33.63327 133.08372 17149 ft 409 kts 76°
2026-04-14 22:40 33.63991 133.11732 17737 ft 415 kts 76°
2026-04-14 22:40 33.64651 133.15080 18284 ft 420 kts 76°
2026-04-14 22:41 33.65328 133.18522 18770 ft 425 kts 76°
2026-04-14 22:41 33.66014 133.22012 19281 ft 428 kts 76°
2026-04-14 22:41 33.66691 133.25464 19898 ft 432 kts 76°
2026-04-14 22:41 33.67387 133.29018 20451 ft 438 kts 76°
2026-04-14 22:42 33.68088 133.32601 20962 ft 442 kts 76°
2026-04-14 22:42 33.68782 133.36161 21530 ft 444 kts 76°
2026-04-14 22:42 33.69250 133.38558 21899 ft 446 kts 76°
2026-04-14 22:42 33.70195 133.43404 22568 ft 451 kts 76°
2026-04-14 22:43 33.70667 133.45835 22853 ft 453 kts 76°
2026-04-14 22:43 33.71578 133.50759 22896 ft 452 kts 79°
2026-04-14 22:43 33.71944 133.53223 22898 ft 451 kts 81°
2026-04-14 22:43 33.72430 133.56942 22897 ft 451 kts 82°
2026-04-14 22:44 33.72884 133.60676 22898 ft 451 kts 82°
2026-04-14 22:44 33.73335 133.64409 22913 ft 451 kts 82°
2026-04-14 22:44 33.73795 133.68152 22901 ft 451 kts 82°
2026-04-14 22:44 33.74262 133.71881 22897 ft 451 kts 82°
2026-04-14 22:45 33.74733 133.75582 22906 ft 451 kts 81°
2026-04-14 22:45 33.75210 133.79314 22891 ft 450 kts 81°
2026-04-14 22:45 33.75687 133.83029 22912 ft 450 kts 81°
2026-04-14 22:45 33.76166 133.86763 22909 ft 450 kts 81°
2026-04-14 22:46 33.76636 133.90440 22906 ft 450 kts 81°
2026-04-14 22:46 33.77110 133.94161 22907 ft 450 kts 81°
2026-04-14 22:46 33.77583 133.97888 22939 ft 450 kts 81°
2026-04-14 22:46 33.78056 134.01628 22929 ft 451 kts 81°
2026-04-14 22:47 33.78527 134.05356 22945 ft 451 kts 81°
2026-04-14 22:47 33.78998 134.09097 22915 ft 452 kts 81°
2026-04-14 22:47 33.79463 134.12796 22936 ft 452 kts 81°
2026-04-14 22:47 33.79933 134.16547 22939 ft 452 kts 81°
2026-04-14 22:48 33.80401 134.20291 22932 ft 453 kts 81°
2026-04-14 22:48 33.81031 134.24000 22924 ft 451 kts 73°
2026-04-14 22:48 33.82082 134.27445 22922 ft 435 kts 62°
2026-04-14 22:48 33.83425 134.30666 22945 ft 428 kts 60°
2026-04-14 22:49 33.84790 134.33846 22945 ft 427 kts 60°
2026-04-14 22:49 33.86151 134.37035 22920 ft 428 kts 61°
2026-04-14 22:49 33.87482 134.40198 22578 ft 428 kts 61°
2026-04-14 22:49 33.88808 134.43393 22188 ft 424 kts 61°
2026-04-14 22:50 33.90116 134.46565 21755 ft 420 kts 61°
2026-04-14 22:50 33.91414 134.49717 21338 ft 417 kts 61°
2026-04-14 22:50 33.92701 134.52833 20899 ft 415 kts 60°
2026-04-14 22:50 33.93989 134.55935 20472 ft 412 kts 60°
2026-04-14 22:51 33.95258 134.58982 20047 ft 410 kts 60°
2026-04-14 22:51 33.96550 134.62090 19611 ft 408 kts 60°
2026-04-14 22:51 33.97805 134.65114 19185 ft 406 kts 60°
2026-04-14 22:51 33.99071 134.68169 18747 ft 405 kts 60°
2026-04-14 22:52 34.00311 134.71165 18321 ft 403 kts 60°
2026-04-14 22:52 34.01553 134.74193 17838 ft 401 kts 61°
2026-04-14 22:52 34.02781 134.77211 17390 ft 398 kts 61°
2026-04-14 22:52 34.03992 134.80195 16954 ft 392 kts 61°
2026-04-14 22:53 34.05175 134.83117 16526 ft 380 kts 62°
2026-04-14 22:53 34.06312 134.85922 16141 ft 376 kts 62°
2026-04-14 22:53 34.07297 134.88352 15826 ft 374 kts 62°
2026-04-14 22:53 34.08425 134.91131 15438 ft 374 kts 62°
2026-04-14 22:54 34.09572 134.93960 15001 ft 373 kts 62°
2026-04-14 22:54 34.10704 134.96758 14602 ft 365 kts 63°
2026-04-14 22:54 34.11800 134.99467 14246 ft 355 kts 63°
2026-04-14 22:54 34.12869 135.02113 13845 ft 352 kts 63°
2026-04-14 22:55 34.13940 135.04766 13436 ft 350 kts 63°
2026-04-14 22:55 34.15002 135.07398 13031 ft 347 kts 63°
2026-04-14 22:55 34.16051 135.10001 12702 ft 342 kts 63°
2026-04-14 22:55 34.17088 135.12575 12339 ft 338 kts 63°
2026-04-14 22:56 34.18116 135.15127 11964 ft 336 kts 64°
2026-04-14 22:56 34.19134 135.17660 11598 ft 333 kts 64°
2026-04-14 22:56 34.20130 135.20137 11235 ft 330 kts 64°
2026-04-14 22:56 34.21147 135.22619 10871 ft 328 kts 60°
2026-04-14 22:57 34.22524 135.24797 10534 ft 325 kts 44°
2026-04-14 22:57 34.24288 135.26459 10317 ft 320 kts 34°
2026-04-14 22:57 34.26137 135.27951 10071 ft 318 kts 33°
2026-04-14 22:57 34.27949 135.29385 9827 ft 312 kts 33°
2026-04-14 22:58 34.29739 135.30808 9580 ft 303 kts 34°
2026-04-14 22:58 34.31469 135.32197 9321 ft 293 kts 34°
2026-04-14 22:58 34.33140 135.33548 9012 ft 283 kts 34°
2026-04-14 22:58 34.34760 135.34864 8762 ft 277 kts 34°
2026-04-14 22:59 34.36352 135.36161 8509 ft 275 kts 35°
2026-04-14 22:59 34.37913 135.37436 8260 ft 273 kts 35°
2026-04-14 22:59 34.39444 135.38687 8018 ft 271 kts 35°
2026-04-14 22:59 34.41006 135.39964 7779 ft 270 kts 35°
2026-04-14 23:00 34.42566 135.41240 7538 ft 270 kts 35°
2026-04-14 23:00 34.44059 135.42608 7276 ft 268 kts 50°
2026-04-14 23:00 34.45066 135.44488 7140 ft 264 kts 62°
2026-04-14 23:00 34.45957 135.46438 6807 ft 263 kts 63°
2026-04-14 23:01 34.46818 135.48333 6688 ft 258 kts 63°
2026-04-14 23:01 34.47685 135.50238 6570 ft 257 kts 63°
2026-04-14 23:01 34.48549 135.52129 6362 ft 257 kts 63°
2026-04-14 23:01 34.49419 135.54031 6066 ft 258 kts 63°
2026-04-14 23:02 34.50290 135.55929 5790 ft 257 kts 63°
2026-04-14 23:02 34.51150 135.57800 5670 ft 250 kts 63°
2026-04-14 23:02 34.51988 135.59624 5545 ft 244 kts 63°
2026-04-14 23:02 34.52791 135.61371 5445 ft 237 kts 63°
2026-04-14 23:03 34.53580 135.63089 5340 ft 230 kts 63°
2026-04-14 23:03 34.54538 135.64621 5221 ft 227 kts 39°
2026-04-14 23:03 34.55980 135.65369 5063 ft 230 kts 12°
2026-04-14 23:03 34.57583 135.65490 4842 ft 230 kts
2026-04-14 23:04 34.59151 135.65484 4600 ft 226 kts
2026-04-14 23:04 34.60673 135.65061 4306 ft 227 kts 329°
2026-04-14 23:04 34.61838 135.63807 4092 ft 219 kts 315°
2026-04-14 23:04 34.62904 135.62514 3870 ft 213 kts 317°
2026-04-14 23:05 34.63982 135.61281 3578 ft 212 kts 317°
2026-04-14 23:05 34.65036 135.60032 3298 ft 211 kts 316°
2026-04-14 23:05 34.66052 135.58799 3034 ft 207 kts 316°
2026-04-14 23:05 34.67061 135.57567 2767 ft 203 kts 316°
2026-04-14 23:06 34.68055 135.56356 2491 ft 201 kts 316°
2026-04-14 23:06 34.69032 135.55164 2213 ft 194 kts 316°
2026-04-14 23:06 34.69954 135.54040 1968 ft 185 kts 316°
2026-04-14 23:06 34.70837 135.52963 1771 ft 171 kts 316°
2026-04-14 23:07 34.71655 135.51965 1502 ft 159 kts 316°
2026-04-14 23:07 34.72410 135.51048 1292 ft 155 kts 316°
2026-04-14 23:07 34.73169 135.50117 1096 ft 154 kts 315°
2026-04-14 23:07 34.73921 135.49192 933 ft 154 kts 316°
2026-04-14 23:08 34.74678 135.48268 764 ft 155 kts 317°
2026-04-14 23:08 34.75448 135.47330 577 ft 158 kts 318°
2026-04-14 23:08 34.76230 135.46382 368 ft 162 kts 319°
2026-04-14 23:08 34.77042 135.45399 139 ft 167 kts 317°
2026-04-14 23:09 34.77839 135.44436 46 ft 143 kts 314°
2026-04-14 23:09 34.78392 135.43763 48 ft 81 kts 315°
2026-04-14 23:09 34.78667 135.43522 48 ft 33 kts 335°
2026-04-14 23:09 34.78836 135.43432 46 ft 17 kts 345°
2026-04-14 23:10 34.78950 135.43432 48 ft 16 kts 10°
2026-04-14 23:10 34.79045 135.43492 50 ft 15 kts 54°
2026-04-14 23:10 34.79056 135.43614 46 ft 15 kts 119°
2026-04-14 23:10 34.78985 135.43706 48 ft 15 kts 135°
2026-04-14 23:11 34.78916 135.43790 47 ft 14 kts 135°
2026-04-14 23:11 34.78849 135.43871 46 ft 13 kts 135°
2026-04-14 23:11 34.78784 135.43949 47 ft 13 kts 135°
2026-04-14 23:11 34.78722 135.44025 45 ft 13 kts 135°
2026-04-14 23:12 34.78661 135.44099 45 ft 12 kts 135°
2026-04-14 23:12 34.78602 135.44171 47 ft 12 kts 135°
2026-04-14 23:12 34.78544 135.44240 48 ft 12 kts 135°
2026-04-14 23:12 34.78521 135.44320 47 ft 11 kts 50°
2026-04-14 23:13 34.78588 135.44368 46 ft 11 kts 42°
2026-04-14 23:13 34.78643 135.44433 47 ft 11 kts 44°
2026-04-14 23:13 34.78702 135.44472 47 ft 11 kts 339°
2026-04-14 23:13 34.78762 135.44428 45 ft 9 kts 329°
2026-04-14 23:14 34.78784 135.44413 47 ft 0 kts 328°